Weather reports worldwide

Advertisment
Damaskus/Intl, Syria (40080): temperature & dewpoint: 09.11.2018 02:00:00 - 15.11.2018 02:00:00 (EET)Damaskus/Intl, Syria (40080): wind speed: 09.11.2018 02:00:00 - 15.11.2018 02:00:00 (EET)Damaskus/Intl, Syria (40080): wind direction: 09.11.2018 02:00:00 - 15.11.2018 02:00:00 (EET)Damaskus/Intl, Syria (40080): reduced air pressure: 09.11.2018 02:00:00 - 15.11.2018 02:00:00 (EET)Damaskus/Intl, Syria (40080): visibility: 09.11.2018 02:00:00 - 15.11.2018 02:00:00 (EET)
Date & Time tt [°C] td [°C] ff [km/h] ff [kn] dd ppp [hPa] vv [km]
15.11.2018 02:00:00 7,4 7,4 8 4 SSW 1010,5 0,1
15.11.2018 01:00:00 8,0 7,0 0 0 N - 0,2
15.11.2018 00:00:00 9,0 7,0 5 3 SSE - 0,2
14.11.2018 23:00:00 9,6 9,6 0 0 N 1010,4 0,1
14.11.2018 22:00:00 10,0 8,0 0 0 N - 3,0
14.11.2018 21:00:00 11,0 9,0 9 5 NW - 6
14.11.2018 20:00:00 12,0 10,9 0 0 N 1010,4 5
14.11.2018 19:00:00 12,0 10,0 0 0 N - 8
14.11.2018 18:00:00 12,0 10,0 0 0 N - 8
14.11.2018 17:00:00 13,4 12,0 11 6 N 1009,7 8
14.11.2018 16:00:00 14,0 11,0 11 6 NNW - 8
14.11.2018 15:00:00 14,0 12,0 13 7 N - 5
14.11.2018 14:00:00 13,6 12,2 9 5 NNE 1009,8 5
14.11.2018 13:00:00 13,0 11,0 5 3 N - 5
14.11.2018 12:00:00 12,0 10,0 9 5 N - 5
14.11.2018 11:00:00 12,2 11,2 13 7 ENE 1012,3 5
14.11.2018 10:00:00 12,0 10,0 16 9 NE - 5
14.11.2018 09:00:00 12,0 10,0 15 8 NNE - 5
14.11.2018 08:00:00 11,8 10,0 8 4 NNW 1013,1 5
14.11.2018 07:00:00 12,0 10,0 15 8 ENE - 5
14.11.2018 06:00:00 12,0 10,0 11 6 NNE - 5
14.11.2018 05:00:00 11,8 9,4 18 10 NNE 1011,5 6
14.11.2018 04:00:00 12,0 9,0 18 10 NNE - 6
14.11.2018 03:00:00 12,0 9,0 15 8 NNE - 5
14.11.2018 02:00:00 11,8 9,2 11 6 NNE 1011,8 10
14.11.2018 01:00:00 12,0 9,0 11 6 NNE - 10
14.11.2018 00:00:00 12,0 10,0 15 8 NNE - 5
13.11.2018 23:00:00 12,7 9,8 18 10 NNE 1013,8 5
13.11.2018 22:00:00 13,0 10,0 15 8 NNE - 10
13.11.2018 21:00:00 - - - - - - -
13.11.2018 20:00:00 12,9 10,8 8 4 NNE 1015,2 8
13.11.2018 19:00:00 13,0 11,0 15 8 NNE - 4,0
13.11.2018 18:00:00 14,0 10,0 15 8 NE - 5
13.11.2018 17:00:00 15,2 10,2 18 10 NE 1014,9 10
13.11.2018 16:00:00 17,0 10,0 15 8 E - 10
13.11.2018 15:00:00 18,0 8,0 11 6 E - 10
13.11.2018 14:00:00 18,1 8,3 15 8 ENE 1015,1 10
13.11.2018 13:00:00 18,0 9,0 8 4 NE - 10
13.11.2018 12:00:00 17,0 9,0 11 6 NE - 10
13.11.2018 11:00:00 15,2 9,8 15 8 WSW 1017,6 10
13.11.2018 10:00:00 14,0 9,0 8 4 ENE - 10
13.11.2018 09:00:00 12,0 9,0 11 6 NE - 10
13.11.2018 08:00:00 10,0 7,9 0 0 N 1019,2 10
13.11.2018 07:00:00 6,0 4,0 8 4 N - 2,0
13.11.2018 06:00:00 5,0 4,0 8 4 NNW - 0,3
13.11.2018 05:00:00 6,0 5,0 8 4 NNW - 3,0
13.11.2018 04:00:00 6,0 5,0 11 6 NNW - 4,0
13.11.2018 03:00:00 8,0 6,0 0 0 N - 5
13.11.2018 02:00:00 9,0 6,9 0 0 N 1018,7 10
13.11.2018 01:00:00 10,0 7,0 8 4 NE - 10
13.11.2018 00:00:00 11,0 8,0 11 6 NNE - 10
12.11.2018 23:00:00 11,0 9,0 15 8 NNE 1019,2 10
12.11.2018 22:00:00 10,0 8,0 15 8 N - 10
12.11.2018 21:00:00 9,0 7,0 8 4 NW - 10
12.11.2018 20:00:00 11,0 9,0 0 0 N 1019,6 10
12.11.2018 19:00:00 11,0 7,0 0 0 N - 10
12.11.2018 18:00:00 - - - - - - -
12.11.2018 17:00:00 12,0 9,0 9 5 NNW - 10
12.11.2018 16:00:00 16,0 9,0 11 6 NNE - 10
12.11.2018 15:00:00 15,0 9,0 15 8 NNW - 10
12.11.2018 14:00:00 19,0 7,6 15 8 SE 1017,4 10
12.11.2018 13:00:00 18,0 8,0 0 0 N - 10
12.11.2018 12:00:00 18,0 11,0 8 4 E - 10
12.11.2018 11:00:00 16,0 12,5 11 6 E 1019,3 4,0
12.11.2018 10:00:00 13,0 12,0 0 0 N - 4,0
12.11.2018 09:00:00 12,0 10,0 5 3 NE - 4,0
12.11.2018 08:00:00 11,6 9,7 0 0 N 1019,6 4,0
12.11.2018 07:00:00 8,0 7,0 9 5 WNW - -
12.11.2018 06:00:00 7,0 6,0 8 4 WSW - -
12.11.2018 05:00:00 8,0 6,0 4 2 NE 1018,5 2,0
12.11.2018 04:00:00 7,0 6,0 0 0 N - 1,5
12.11.2018 03:00:00 9,0 7,0 8 4 WNW - 0,8
12.11.2018 02:00:00 10,6 9,0 4 2 NNE 1017,5 10
12.11.2018 01:00:00 11,0 9,0 5 3 N - 10
12.11.2018 00:00:00 13,0 10,0 0 0 N - 10
11.11.2018 23:00:00 14,0 11,4 5 3 SSE 1017,7 10
11.11.2018 22:00:00 14,0 10,0 5 3 SSW - 10
11.11.2018 21:00:00 - - - - - - -
11.11.2018 20:00:00 15,2 12,0 8 4 WNW 1018,0 10
11.11.2018 19:00:00 15,0 10,0 4 2 W - 10
11.11.2018 18:00:00 15,0 10,0 5 3 WNW - 10
11.11.2018 17:00:00 17,6 11,5 5 3 N 1016,9 10
11.11.2018 16:00:00 18,0 9,0 4 2 NNW - 10
11.11.2018 15:00:00 12,0 9,0 5 3 WSW - 10
11.11.2018 14:00:00 20,0 10,0 5 3 SSW 1016,3 10
11.11.2018 13:00:00 19,0 11,0 8 4 NE - 10
11.11.2018 12:00:00 17,0 10,0 9 5 ESE - 10
11.11.2018 11:00:00 16,4 12,2 5 3 NE 1014,8 10
11.11.2018 10:00:00 15,0 10,0 5 3 NE - 10
11.11.2018 09:00:00 14,0 11,0 4 2 SE - 8
11.11.2018 08:00:00 10,2 9,4 0 0 N 1018,5 2,0
11.11.2018 07:00:00 8,0 6,0 9 5 WSW - 1,5
11.11.2018 06:00:00 8,0 7,0 18 10 ESE - 10
11.11.2018 05:00:00 8,8 7,1 4 2 WNW 1017,4 6
11.11.2018 04:00:00 10,0 7,0 5 3 NE - 6
11.11.2018 03:00:00 11,0 8,0 9 5 NE - 6
11.11.2018 02:00:00 11,6 9,7 9 5 NE 1016,7 6
11.11.2018 01:00:00 10,0 8,0 4 2 N - 6
11.11.2018 00:00:00 12,0 10,0 4 2 N - 6
10.11.2018 23:00:00 13,0 11,1 8 4 N 1016,8 6
10.11.2018 22:00:00 13,0 11,0 8 4 WNW - 6
10.11.2018 21:00:00 13,0 11,0 8 4 NW - 10
10.11.2018 20:00:00 13,8 11,6 8 4 WNW 1016,9 10
10.11.2018 19:00:00 14,0 11,0 5 3 NW - 10
10.11.2018 18:00:00 14,0 11,0 13 7 NE - 10
10.11.2018 17:00:00 15,0 12,1 13 7 NE 1015,4 10
10.11.2018 16:00:00 15,0 11,0 11 6 NE - 10
10.11.2018 15:00:00 15,0 11,0 16 9 ENE - 10
10.11.2018 14:00:00 15,4 12,6 16 9 ENE 1015,5 10
10.11.2018 13:00:00 15,0 11,0 21 11 NE - 10
10.11.2018 12:00:00 15,0 11,0 15 8 NE - 10
10.11.2018 11:00:00 13,8 12,0 18 10 NE 1016,8 8
10.11.2018 10:00:00 13,0 10,0 18 10 NE - 6
10.11.2018 09:00:00 13,0 10,0 18 10 ENE - 8
10.11.2018 08:00:00 12,4 11,6 18 10 NE 1015,6 8
10.11.2018 07:00:00 12,0 10,0 16 9 NE - 10
10.11.2018 06:00:00 12,0 10,0 13 7 NNE - 8
10.11.2018 05:00:00 12,6 11,1 7 4 NE 1015,5 8
10.11.2018 04:00:00 12,0 10,0 11 6 N - 8
10.11.2018 03:00:00 12,0 10,0 15 8 NNE - 10
10.11.2018 02:00:00 12,0 10,0 13 7 ENE - 10
10.11.2018 01:00:00 11,0 10,0 11 6 NNE - 10
10.11.2018 00:00:00 12,0 10,0 13 7 NNE - 10
09.11.2018 23:00:00 17,4 10,5 11 6 NE 1016,3 10
09.11.2018 22:00:00 11,0 9,0 15 8 NNE - 10
09.11.2018 21:00:00 12,0 9,0 11 6 NNE - 10
09.11.2018 20:00:00 13,0 10,0 11 6 NNE - 10
09.11.2018 19:00:00 12,0 9,0 11 6 NE - 10
09.11.2018 18:00:00 13,0 9,0 11 6 NNE - 10
09.11.2018 17:00:00 13,0 10,0 11 6 NNE - 10
09.11.2018 16:00:00 13,0 10,0 13 7 ENE - 8
09.11.2018 15:00:00 13,0 10,0 18 10 ENE - 8
09.11.2018 14:00:00 16,8 11,9 11 6 N 1015,0 10
09.11.2018 13:00:00 16,0 11,0 5 3 NE - 10
09.11.2018 12:00:00 15,0 11,0 9 5 ENE - 10
09.11.2018 11:00:00 - - - - - - -
09.11.2018 10:00:00 12,0 11,0 11 6 NE - 10
09.11.2018 09:00:00 12,0 10,0 8 4 ENE - 10
09.11.2018 08:00:00 12,0 10,1 11 6 E 1017,4 3,0
09.11.2018 07:00:00 12,0 9,0 11 6 E - 6
09.11.2018 06:00:00 11,0 9,0 8 4 ESE - 8
09.11.2018 05:00:00 11,0 9,2 8 4 ENE 1016,4 10
09.11.2018 04:00:00 11,0 8,0 11 6 NNE - 10
09.11.2018 03:00:00 11,0 7,0 8 4 N - 10
09.11.2018 02:00:00 10,5 8,5 8 4 NNE 1016,1 10

tt = temperature
td = dewpoint
ff = wind speed
dd = wind direction
ppp = reduced air pressure
vv = visibility

Next stations